GFSGL_prec_cloud_057.txt.gz
Cloud_Cover
100 100 60 100 100 100 100 100 100 100 100 97 95 97 100 100 100 100 100 100 100 100 100 96 38 7 58 70 39 51 8 97 10 89 22 26 5 29 31 22 78 37 13
100 100 100 100 100 100 99 100 100 100 100 100 100 100 100 100 100 100 100 100 100 100 100 82 7 84 4 5 0 0 64 93 56 100 14 41 49 100 39 8 39 100 94
100 100 100 100 100 99 37 100 100 100 100 100 100 100 100 100 100 100 93 54 49 100 13 7 0 36 48 1 12 3 7 5 5 1 25 70 70 37 43 55 98 95 74
5 25 97 100 100 100 100 100 100 100 100 100 100 100 100 100 100 100 30 78 76 10 0 14 98 75 37 18 62 100 26 34 97 100 17 32 45 100 70 69 75 77 54
12 1 4 6 99 100 100 100 100 100 100 100 100 100 100 100 100 62 83 5 0 1 2 36 82 75 10 23 100 60 18 0 8 98 9 85 99 55 96 64 55 78 75
72 4 0 0 5 5 3 2 2 16 100 100 41 3 38 10 99 63 0 8 17 45 57 53 50 12 100 100 40 5 2 0 6 72 87 71 17 23 100 91 99 67 91
50 2 0 0 0 0 0 0 0 8 5 99 100 4 8 3 2 0 1 2 14 46 50 14 49 100 100 36 52 26 29 84 5 10 6 88 85 45 82 100 100 90 74
51 4 1 0 0 0 0 0 0 0 0 0 0 0 0 44 9 0 0 8 32 47 15 15 3 82 0 4 5 91 100 88 5 5 15 69 97 20 73 99 100 100 98
9 5 0 0 0 0 0 0 11 0 0 0 0 0 15 2 96 1 5 7 22 40 30 21 5 6 32 93 38 100 100 100 79 96 48 69 100 30 52 11 98 100 100
11 5 5 1 3 0 0 0 37 0 0 0 0 30 16 0 98 1 12 25 63 58 16 1 39 28 100 100 63 35 92 100 42 23 6 36 18 47 59 54 96 82 100
100 32 50 10 24 44 0 0 11 0 0 28 83 83 42 2 20 100 100 36 94 29 30 67 57 100 100 100 96 9 90 100 94 97 100 92 77 55 100 89 18 44 91
98 98 100 2 39 0 34 0 1 4 56 96 67 78 100 19 40 93 100 40 3 56 100 99 20 100 100 100 73 100 100 94 100 100 82 100 94 64 95 96 25 51 44
92 98 4 35 18 48 15 56 96 100 88 100 92 99 100 100 100 100 100 100 43 22 76 87 98 100 100 99 100 100 100 100 100 100 90 100 34 49 98 63 27 6 8
100 88 100 89 89 50 100 100 85 100 100 100 100 92 100 100 4 0 4 5 48 2 68 18 40 72 88 63 60 49 92 100 100 100 98 65 42 55 39 49 73 46 70
100 100 85 100 100 100 100 73 97 97 14 57 100 100 100 26 5 0 2 0 44 35 5 17 22 71 70 33 44 64 67 100 100 100 93 98 100 100 92 99 99 100 100
100 100 100 100 100 100 100 100 100 100 100 100 100 95 16 71 73 1 63 87 85 50 51 89 64 92 99 100 83 68 48 92 96 94 100 100 100 97 100 97 51 41 90
100 100 100 100 100 100 100 100 100 100 100 100 100 95 58 97 100 100 100 100 100 82 43 99 52 52 70 81 96 100 96 97 92 74 95 100 100 76 21 66 94 100 66
100 100 100 100 100 100 100 100 100 100 100 100 88 38 100 100 100 100 100 76 58 67 87 76 69 90 97 88 99 96 98 77 96 91 84 71 80 100 97 91 55 80 63
100 100 100 100 94 92 86 100 100 100 92 97 100 100 100 100 100 100 100 82 89 60 65 89 83 97 93 78 94 91 100 91 96 100 100 88 97 98 76 68 97 72 60
92 100 100 100 100 100 100 73 68 100 95 100 100 100 100 100 100 100 87 94 100 100 100 86 100 100 99 100 100 100 100 100 100 62 97 70 55 64 67 95 91 94 76
90 100 100 100 100 87 100 75 98 82 100 100 100 100 100 100 100 94 100 100 100 100 100 100 69 100 100 100 100 100 96 93 79 99 98 96 70 95 70 99 92 99 96
100 96 87 42 49 60 100 97 100 99 97 92 100 100 86 100 100 100 100 100 100 100 100 96 98 100 100 98 97 41 89 74 89 87 49 82 73 61 74 94 100 100 94
100 4 41 66 92 100 100 100 100 100 98 100 100 100 69 100 100 100 100 100 88 100 82 100 100 100 79 78 100 88 64 74 93 86 76 46 42 60 87 59 53 8 7
92 55 98 82 100 100 100 100 100 98 100 93 100 100 100 100 100 100 100 100 100 100 100 98 71 92 99 100 100 100 100 46 73 46 57 17 5 5 5 6 31 43 51
44 89 100 100 100 100 100 100 100 100 94 100 100 100 100 100 100 100 100 100 100 99 62 99 98 82 61 99 68 76 99 97 99 89 47 99 90 78 98 73 54 35 27
100 100 100 100 100 100 99 97 92 97 100 100 100 100 100 100 100 100 100 100 100 100 82 100 100 100 100 100 99 78 27 60 39 13 9 96 78 65 51 73 70 69 99

GFSGL_prec_cloud_060.txt.gz
Cloud_Cover
100 100 100 100 36 100 71 99 100 100 100 94 100 100 100 94 100 68 84 96 74 49 90 65 85 100 100 76 5 0 0 0 0 13 50 6 0 0 0 0 5 32 49
85 56 100 100 100 100 100 100 100 100 100 100 100 100 100 41 100 100 63 99 47 78 100 100 100 100 100 3 5 0 0 0 0 4 30 1 0 0 8 0 5 100 97
17 14 56 100 100 99 100 100 12 100 100 39 100 100 100 100 100 92 100 100 40 100 100 100 100 96 43 5 0 0 0 0 24 69 19 0 4 4 0 4 5 21 100
0 7 5 62 100 100 100 100 94 100 94 93 98 100 100 100 100 100 100 100 100 100 100 100 100 84 3 0 3 0 0 5 5 5 0 6 96 5 0 54 14 25 82
0 0 34 47 3 93 100 100 100 100 100 100 100 100 100 100 100 100 100 100 100 100 100 100 100 13 1 1 0 0 0 4 5 0 0 84 95 21 6 5 6 43 60
0 0 0 4 5 5 18 100 100 100 100 100 100 100 100 100 100 100 100 100 100 100 100 100 89 0 6 15 0 5 5 5 0 0 4 57 20 5 20 9 76 93 26
0 4 0 1 37 0 1 84 100 100 100 100 100 100 100 100 100 100 100 100 100 100 100 15 0 22 28 2 34 13 14 0 5 5 33 79 20 93 50 17 97 100 95
5 20 4 49 81 1 0 0 3 100 100 100 100 100 100 100 100 100 100 100 88 21 0 17 2 0 0 0 0 3 0 3 24 93 6 5 5 64 21 25 56 100 100
11 3 9 98 5 1 0 0 0 81 100 100 100 100 100 100 100 100 100 4 0 2 4 0 0 0 0 1 0 3 4 12 86 95 88 7 99 100 10 21 64 98 100
7 8 94 98 5 5 5 0 0 2 100 100 100 100 100 100 100 100 2 2 7 3 0 0 25 2 90 100 4 4 11 99 98 100 90 36 18 43 10 8 33 59 99
78 84 5 2 5 2 1 2 4 12 17 100 100 100 100 100 97 95 53 5 5 0 15 2 12 100 100 100 96 0 78 100 100 100 96 35 8 6 13 6 92 100 92
96 100 100 100 3 1 1 0 0 0 0 1 18 100 100 98 92 100 18 99 25 11 63 2 66 100 100 100 76 100 100 81 100 100 100 100 94 6 5 9 11 34 46
100 100 100 100 43 3 1 0 0 0 0 0 56 99 100 100 100 100 100 36 40 24 2 66 99 100 100 89 100 100 98 38 89 98 100 100 100 100 25 12 5 69 91
94 27 78 75 0 2 0 0 0 5 5 34 100 100 100 100 100 55 24 12 88 74 74 66 31 51 51 100 97 40 53 52 85 100 100 100 100 85 5 5 13 32 31
98 81 88 31 8 0 12 25 42 98 100 100 98 99 86 44 43 40 93 79 0 31 0 0 5 5 46 48 49 20 61 100 99 100 100 99 60 73 42 5 93 48 5
100 85 100 100 100 100 100 100 100 100 100 61 64 31 61 11 20 58 37 0 0 0 0 5 5 28 25 88 5 33 79 33 77 100 100 98 100 100 100 85 14 8 44
100 100 100 100 100 100 100 100 100 100 100 100 100 100 99 100 100 100 41 36 94 39 5 5 37 61 70 26 10 27 88 99 96 100 100 100 100 100 100 92 31 66 51
100 100 100 100 100 100 100 100 100 100 100 100 100 100 100 100 100 100 100 36 9 30 70 51 47 17 76 72 7 96 99 80 99 100 100 100 100 100 69 47 80 100 74
100 100 100 100 100 100 100 100 99 80 97 100 100 100 100 100 100 100 80 5 7 12 79 96 67 7 38 48 99 100 84 99 19 100 100 87 98 18 59 6 90 78 52
100 100 94 100 100 100 87 100 72 68 99 100 100 100 100 62 71 100 97 33 50 11 57 73 70 84 61 22 99 100 100 86 55 81 36 16 40 67 26 72 48 60 53
99 89 77 100 78 89 77 71 20 98 100 100 100 100 98 82 100 86 88 100 100 100 100 100 84 100 100 100 100 94 93 78 21 62 5 100 100 62 41 68 100 63 82
100 100 65 86 8 72 19 32 62 98 100 100 100 100 100 100 100 99 73 100 100 100 100 100 96 93 84 86 58 23 36 42 57 26 25 47 94 98 100 100 100 100 100
62 94 100 65 72 100 96 48 49 100 100 100 100 100 100 100 96 100 100 100 100 100 99 85 91 66 79 91 45 10 31 28 83 66 82 59 90 44 27 49 59 42 4
96 18 0 1 81 57 92 100 100 100 100 100 100 100 100 100 100 100 100 100 100 100 96 59 76 93 64 79 61 57 48 44 42 96 70 42 5 5 1 1 4 5 7
3 38 96 71 88 67 100 100 100 100 100 100 94 100 100 100 100 100 100 100 100 100 50 67 36 100 100 75 65 94 41 6 45 33 2 1 3 8 12 20 26 16 27
100 100 100 100 100 99 100 100 86 81 100 100 100 100 100 100 100 100 96 96 85 92 83 90 100 100 100 100 100 93 90 30 5 5 5 21 62 54 50 44 56 48 89

GFSGL_prec_cloud_063.txt.gz
Cloud_Cover
0 0 0 0 0 96 100 100 64 31 100 100 100 76 100 100 100 100 100 100 100 100 100 100 100 100 100 70 6 14 19 41 100 100 100 4 0 0 0 0 0 0 35
0 0 0 0 0 0 100 100 100 93 40 68 100 100 97 100 100 100 100 100 100 100 100 100 100 100 95 6 7 5 8 97 100 100 100 1 0 0 0 5 0 18 37
0 0 0 0 0 0 60 100 100 100 100 100 100 71 100 74 100 100 100 100 100 100 100 100 95 99 6 18 5 5 51 100 100 100 87 0 0 0 3 5 0 1 14
0 0 0 0 0 0 3 97 100 86 92 100 84 100 74 98 100 100 100 100 100 100 100 63 97 98 100 65 27 96 56 100 100 100 0 0 3 2 5 5 5 28 5
0 0 0 0 0 0 0 16 100 100 80 21 36 100 94 65 100 100 100 100 100 91 100 100 100 100 100 100 100 100 100 100 100 89 2 3 15 42 5 5 17 58 16
0 0 0 0 0 0 0 0 21 100 100 100 100 100 100 83 5 5 83 100 100 77 100 95 100 100 100 100 100 100 100 100 97 0 0 5 1 5 5 5 20 53 38
0 0 0 0 0 0 0 11 7 0 96 100 100 100 100 100 47 12 100 4 3 37 26 98 95 92 100 100 100 100 100 2 0 0 0 1 8 5 5 7 5 5 5
0 0 0 0 0 0 0 89 68 0 2 100 100 100 100 92 100 28 79 98 22 92 98 100 100 100 100 100 100 100 32 0 0 0 0 4 5 64 5 5 5 20 31
0 0 0 0 0 0 0 25 96 9 0 0 8 100 100 100 85 7 6 33 97 100 100 100 100 100 100 100 100 5 8 5 83 100 49 11 69 49 5 35 8 11 88
6 8 6 0 1 0 0 5 70 0 0 0 0 76 100 100 100 52 46 52 88 100 100 100 100 100 100 100 39 0 6 1 0 1 7 48 21 61 82 7 5 56 68
13 29 100 100 95 5 4 27 19 12 0 0 0 1 94 100 100 100 83 100 100 100 100 100 100 100 97 100 83 0 13 5 30 25 26 36 6 5 5 5 5 22 97
91 100 100 100 100 20 66 92 100 47 4 0 0 0 7 100 100 100 100 100 100 100 100 100 100 100 100 100 81 99 100 75 11 20 100 95 100 14 5 5 5 7 10
100 100 100 100 100 100 64 90 99 22 0 0 0 0 32 100 100 100 100 100 100 100 100 100 100 100 100 100 100 100 99 13 23 51 100 100 79 8 9 89 5 5 5
100 100 100 98 90 96 97 29 0 0 0 0 0 0 48 100 99 100 100 100 100 100 100 100 86 100 58 98 93 87 19 18 98 93 99 100 100 85 5 5 5 0 4
100 98 100 10 22 18 5 2 0 0 0 0 0 1 87 100 100 100 100 100 100 100 73 72 90 28 26 13 1 8 18 91 66 67 99 88 100 80 33 5 5 5 5
100 46 5 8 5 4 0 1 98 97 84 72 92 100 100 100 100 100 100 100 99 98 100 11 19 5 3 7 5 10 76 100 100 92 100 95 100 100 100 89 23 5 58
100 93 55 57 12 4 0 9 70 74 100 100 100 100 100 100 100 100 100 100 100 44 1 0 5 5 5 5 5 5 5 5 6 49 97 100 100 100 100 100 100 16 26
100 100 100 13 36 36 89 100 100 100 100 100 100 100 100 100 100 100 99 57 30 36 4 5 5 5 5 18 5 8 87 31 24 42 100 100 100 100 97 19 38 99 49
100 93 88 100 100 100 100 100 100 100 100 100 100 100 100 100 100 100 9 0 0 3 5 5 5 5 5 5 5 69 100 100 63 100 100 100 93 82 49 6 44 74 51
100 99 97 85 100 100 100 100 100 100 100 100 100 100 75 28 89 100 39 0 6 11 5 78 5 5 5 7 30 100 100 100 68 100 100 44 11 87 79 80 24 34 51
100 100 100 100 100 100 100 100 100 100 100 100 100 100 99 45 100 100 77 72 43 6 26 44 50 50 85 99 100 100 100 68 69 23 16 25 91 26 24 53 38 95 58
100 98 100 100 100 100 100 100 100 100 100 100 100 100 100 96 100 100 100 100 82 36 17 7 20 64 84 44 28 8 64 44 88 77 10 92 42 14 64 76 88 100 100
100 100 100 100 100 100 100 100 100 100 100 100 100 100 100 100 100 100 100 100 98 71 61 89 97 64 60 58 23 17 5 23 32 11 5 24 69 100 56 57 100 70 32
100 100 100 100 91 100 100 100 100 100 100 100 100 100 100 100 100 100 99 100 100 100 100 100 100 100 79 100 68 6 40 48 10 58 83 94 93 66 12 2 4 5 11
79 70 84 98 96 100 100 100 100 83 90 100 100 100 100 100 100 100 100 100 100 100 84 100 100 100 100 100 90 45 100 52 94 46 36 46 5 2 5 6 40 23 40
8 40 90 15 64 100 100 100 100 100 100 100 100 100 100 100 100 100 99 100 89 46 99 88 75 75 76 58 92 90 6 14 100 88 13 11 79 65 70 76 37 14 9

GFSGL_prec_cloud_069.txt.gz
Cloud_Cover
0 0 0 0 0 0 0 0 0 0 0 0 0 1 3 5 3 20 18 44 100 100 100 100 100 100 100 100 100 77 66 100 100 100 100 100 100 100 100 100 100 49 100
0 0 0 0 0 0 0 0 0 0 0 0 0 0 0 0 0 9 11 2 64 100 100 100 100 100 100 93 90 100 100 100 100 100 100 100 100 100 100 100 65 30 100
0 0 0 0 0 0 0 0 0 0 0 0 0 0 0 0 0 1 0 3 96 98 90 100 100 89 93 100 100 100 100 100 100 100 100 100 100 100 100 100 82 100 61
4 4 0 0 0 0 0 0 0 0 0 0 0 0 0 0 0 0 5 1 56 99 100 100 100 100 97 100 100 100 100 100 100 100 100 100 100 100 100 100 100 90 80
100 4 1 0 0 0 0 0 0 0 0 0 0 0 0 0 0 0 17 7 2 95 98 100 99 100 100 100 100 100 100 100 100 100 100 100 100 100 100 100 100 100 62
9 5 3 0 0 0 0 0 0 0 0 0 0 0 0 0 0 0 0 68 5 46 87 100 100 83 92 100 100 86 88 100 100 100 100 100 100 100 100 57 100 47 100
11 5 5 5 3 2 1 0 0 0 0 0 0 0 0 0 0 0 0 7 23 4 11 100 100 100 98 68 100 83 100 100 100 100 100 100 100 100 98 83 92 6 8
9 42 3 5 14 9 13 22 89 6 5 3 0 0 0 0 0 0 0 0 43 99 100 85 30 7 14 40 93 100 100 100 100 100 100 100 100 100 58 90 9 5 12
100 91 89 84 85 64 2 2 3 5 7 9 5 0 0 0 0 0 0 0 35 94 66 21 5 5 70 100 76 100 100 100 100 100 100 100 100 72 15 18 32 26 23
100 100 100 66 18 9 7 5 0 0 0 0 0 0 0 0 0 0 19 0 1 17 5 8 99 36 100 100 100 100 100 100 100 100 100 100 98 100 100 6 12 13 6
24 56 58 74 10 0 0 0 0 0 0 0 0 0 0 0 0 70 100 40 3 7 12 17 65 100 100 100 100 100 100 100 100 100 100 96 43 97 59 5 5 5 5
0 0 0 0 0 0 0 0 0 0 0 0 0 0 0 0 89 92 100 100 83 81 68 43 35 100 100 100 100 100 100 100 100 100 99 65 49 54 32 20 28 24 5
60 5 4 0 0 0 0 0 0 0 0 0 0 0 0 0 8 99 100 100 100 100 97 53 100 100 100 100 100 100 100 100 100 100 44 37 16 8 10 10 6 6 5
100 100 99 56 54 36 26 59 90 36 66 100 32 0 0 0 10 25 13 32 100 100 100 100 100 100 100 100 100 100 100 100 96 76 81 76 23 41 43 12 94 25 34
100 100 100 99 55 99 92 100 94 97 100 100 99 42 0 0 1 32 33 32 86 100 100 100 100 100 100 100 100 100 100 99 91 61 68 44 81 53 5 87 78 100 13
100 100 100 100 100 100 100 100 100 100 100 84 12 83 10 79 95 100 100 100 100 100 100 100 100 100 100 100 100 100 100 99 50 15 89 98 73 15 60 55 26 75 11
100 100 100 100 100 100 100 100 100 98 100 100 100 100 100 94 100 100 100 100 100 100 100 100 100 100 100 100 100 100 100 100 62 46 97 94 90 65 99 71 57 5 8
100 100 100 100 100 100 100 76 52 49 81 35 82 100 100 100 100 100 100 100 100 100 100 100 100 100 57 100 99 56 55 69 65 58 38 84 100 100 96 100 100 100 100
100 100 100 100 100 93 70 57 63 50 68 27 98 100 100 100 100 100 100 100 100 100 100 100 78 91 99 22 7 9 15 48 35 12 12 47 93 98 100 100 98 82 100
100 100 90 100 96 53 76 97 99 98 80 95 98 100 100 100 100 100 100 100 100 100 100 100 47 30 53 24 9 5 21 24 15 7 7 92 100 100 100 96 10 5 10
100 95 100 100 99 77 100 100 99 65 89 88 82 89 100 90 100 100 100 100 100 100 100 51 97 99 5 7 5 5 5 5 27 73 100 100 100 72 5 5 5 6 19
100 100 100 100 100 100 67 56 100 99 100 100 100 100 100 100 100 100 100 100 100 100 100 74 50 6 5 9 5 31 90 97 100 100 100 100 47 13 46 95 77 79 61
100 100 100 100 100 100 100 100 100 100 100 100 100 100 100 100 100 100 100 100 100 100 87 17 6 26 62 13 32 83 100 100 100 100 99 74 100 24 8 15 78 92 82
100 100 100 100 100 100 100 100 100 100 100 100 100 100 100 100 100 100 100 100 100 64 17 45 74 70 84 66 74 97 100 100 100 45 77 100 54 62 8 23 40 44 22
100 100 100 100 100 100 100 100 100 100 100 100 100 100 100 100 100 95 77 29 29 95 68 98 100 100 75 6 54 53 100 100 100 99 8 55 100 100 100 16 0 5 5
100 100 100 100 100 100 100 100 100 96 99 100 100 100 100 100 100 78 85 100 100 100 95 93 38 48 77 84 99 97 100 89 73 99 90 83 81 28 5 4 5 5 2

GFSGL_prec_cloud_072.txt.gz
Cloud_Cover
11 1 0 0 0 0 0 0 0 0 0 0 0 0 0 0 0 1 0 5 18 9 4 5 9 100 100 100 100 100 100 75 100 100 100 100 100 100 100 100 100 100 100
43 4 0 0 0 0 0 0 0 0 0 0 0 0 0 0 0 0 0 0 0 0 0 9 5 94 91 100 100 100 100 99 100 100 100 100 100 100 100 100 88 100 97
95 14 5 0 0 0 0 0 0 0 0 0 0 0 0 0 0 0 0 0 0 0 0 0 5 40 82 100 100 100 100 100 100 100 100 100 100 100 100 100 100 70 93
31 64 4 0 0 0 0 0 0 0 0 0 0 0 0 0 0 0 0 0 0 0 0 0 4 76 100 100 100 100 100 100 100 100 100 100 100 100 100 100 86 100 100
5 5 5 5 3 0 0 0 0 0 0 0 0 0 0 0 0 0 0 0 0 0 0 0 5 52 43 100 100 100 97 100 100 100 100 100 100 100 100 95 65 100 100
100 23 87 5 8 67 0 0 0 0 0 0 0 0 0 0 0 0 0 0 0 0 0 0 1 100 90 100 100 100 100 100 100 100 100 100 100 100 96 65 100 100 100
100 86 48 5 54 24 4 0 0 0 0 0 0 0 0 0 0 0 0 0 0 0 0 0 0 84 44 96 100 100 100 100 100 100 100 100 100 100 100 100 100 100 66
53 54 99 100 62 5 2 0 0 0 0 0 0 0 0 0 0 0 0 0 0 0 0 0 0 2 100 65 100 100 100 100 96 88 100 100 100 100 100 100 95 26 64
100 69 100 62 28 81 92 27 5 3 0 4 4 0 0 0 0 0 0 0 0 0 0 0 0 5 74 100 90 100 100 100 100 100 100 100 100 100 100 100 96 22 80
56 41 83 100 98 5 3 5 11 10 28 5 40 40 5 2 0 0 0 0 0 0 0 0 98 73 100 100 100 100 100 91 100 100 100 100 100 100 100 100 11 93 10
2 61 100 100 91 90 95 68 21 55 2 5 5 5 5 2 5 2 0 0 0 0 0 0 0 100 100 100 99 100 100 100 100 100 100 100 100 100 100 95 12 48 26
0 0 0 1 66 46 100 100 100 80 33 31 4 5 0 1 89 61 80 95 52 41 0 0 10 100 100 100 100 100 100 100 100 100 100 100 100 100 94 86 11 6 32
90 26 2 0 0 94 100 100 100 100 100 82 21 59 21 0 0 100 100 100 100 100 99 52 98 100 100 100 100 100 100 100 100 100 100 100 100 93 100 53 49 54 72
66 100 100 49 12 16 19 91 92 95 43 4 1 0 0 0 0 0 22 98 100 100 100 100 100 100 100 100 100 100 100 100 100 100 100 100 100 100 100 64 66 42 67
100 100 100 100 30 36 36 2 0 0 0 0 0 0 0 0 0 0 14 0 1 94 100 100 100 100 100 100 100 100 100 100 100 100 100 100 100 100 99 44 49 62 22
100 100 100 100 99 76 39 5 62 25 37 86 90 75 89 68 48 100 100 100 100 100 100 100 100 100 100 100 100 100 100 100 100 100 100 100 100 100 37 52 93 71 5
100 100 100 100 100 100 100 100 92 95 100 100 100 97 100 100 100 100 100 100 100 100 100 100 100 100 100 100 100 100 100 100 100 100 100 100 100 86 96 89 87 15 4
100 100 100 100 100 100 100 100 100 100 98 100 100 100 100 100 100 100 100 100 100 100 100 100 100 100 100 100 100 100 100 100 100 100 100 75 100 100 100 89 100 90 96
100 100 100 100 100 100 100 100 100 100 100 99 86 100 100 100 100 100 100 96 68 100 100 100 100 100 100 100 100 100 100 100 100 100 62 100 99 100 100 99 100 100 99
100 100 100 100 100 100 100 100 100 100 100 100 100 99 97 100 100 100 100 100 99 100 100 100 100 100 100 100 100 100 94 90 99 97 83 96 70 98 98 100 100 18 9
100 62 100 100 100 92 61 87 100 100 100 100 100 100 100 100 100 100 100 100 100 100 100 100 100 100 100 100 100 12 47 33 98 50 54 5 72 100 100 100 12 5 10
100 100 82 35 100 98 80 100 100 53 100 62 90 82 100 100 100 100 100 100 100 100 100 100 100 100 100 100 57 74 57 52 11 44 100 100 100 73 29 38 84 49 73
100 99 100 97 95 100 98 100 100 100 50 36 52 61 100 100 100 100 100 100 100 100 100 100 100 100 51 30 78 80 88 49 100 100 100 100 21 67 88 26 46 100 100
100 100 100 100 100 90 99 100 90 83 94 99 97 97 100 100 100 100 100 99 100 100 100 88 100 30 97 96 98 89 100 100 100 100 100 100 100 86 38 62 100 96 99
100 100 100 100 100 100 100 100 100 100 100 81 73 85 100 100 100 100 100 100 100 100 100 99 60 90 100 100 100 100 100 100 100 96 28 99 83 100 90 40 33 39 32
100 100 100 100 100 100 100 100 100 100 100 100 100 100 100 100 100 100 100 100 100 96 73 55 100 100 100 100 100 100 100 100 100 42 33 38 85 34 79 14 12 3 5

GFSGL_prec_cloud_075.txt.gz
Cloud_Cover
67 100 62 31 3 1 0 0 0 0 0 0 0 0 0 0 0 0 0 0 0 0 23 38 98 73 73 40 32 38 100 100 100 100 76 87 95 99 100 100 100 71 75
100 50 100 98 4 5 0 0 0 0 0 0 0 0 0 0 0 0 0 0 0 0 0 0 0 0 0 0 37 66 100 100 100 100 96 100 100 100 100 100 100 100 100
57 100 100 55 5 0 0 0 0 0 0 0 0 0 0 0 0 0 0 0 0 0 0 0 0 0 0 0 42 82 100 96 100 100 100 100 100 100 100 100 99 100 100
57 100 98 5 4 0 0 0 0 0 0 0 0 0 0 0 0 0 0 0 0 0 0 0 0 0 0 0 0 74 100 80 100 100 100 100 100 100 100 100 100 100 100
100 100 84 59 5 0 5 0 0 0 0 0 0 0 0 0 0 0 0 0 0 0 0 0 0 0 0 0 1 0 82 98 97 100 100 100 100 100 100 100 100 100 100
100 100 100 80 100 74 73 40 5 0 0 0 0 0 0 0 0 0 0 0 0 0 0 0 0 0 0 0 36 95 93 8 100 100 100 100 100 100 100 100 100 100 100
100 100 100 100 100 100 95 100 82 4 0 0 0 0 0 0 0 0 0 0 0 0 0 0 0 0 13 0 0 83 87 100 100 100 100 100 100 100 100 100 100 100 100
76 100 100 100 100 100 77 80 100 14 4 0 0 0 0 0 0 0 0 0 0 0 0 0 0 0 0 7 0 0 59 78 100 100 100 30 100 100 100 100 100 100 100
95 44 100 100 100 100 100 87 100 77 99 10 1 0 0 0 0 0 4 0 0 0 0 0 0 0 0 100 5 0 15 97 100 100 100 100 100 100 100 100 100 100 96
0 13 71 100 100 100 100 100 100 85 29 83 4 1 0 0 0 0 0 0 0 0 0 0 47 36 26 100 24 47 4 92 100 99 51 96 100 100 100 100 100 100 100
20 3 6 17 100 100 95 100 100 100 100 28 5 5 5 1 0 0 0 0 0 0 0 0 0 83 100 100 100 100 66 100 100 71 72 97 100 100 100 100 95 100 99
100 78 9 2 5 11 62 98 100 100 100 100 82 46 7 5 31 33 3 35 7 0 0 0 0 93 100 100 100 100 100 100 95 100 100 100 100 100 100 90 100 99 84
92 44 99 62 5 100 66 84 100 65 22 13 68 87 100 93 91 97 98 100 98 46 0 2 98 100 100 100 100 100 100 100 100 100 100 100 100 100 96 100 100 100 100
100 100 100 100 97 30 69 65 30 80 97 100 76 50 10 5 1 9 62 9 81 89 7 47 98 69 100 98 100 100 100 100 100 100 100 100 100 100 100 100 100 100 100
100 100 100 100 100 100 89 10 22 99 100 100 99 100 98 27 6 89 18 2 0 0 1 56 99 100 100 100 100 100 100 100 100 100 100 100 100 100 100 100 100 100 100
100 100 100 100 100 100 100 100 78 16 4 0 0 55 70 100 38 38 33 91 100 100 99 100 92 33 78 100 100 100 100 100 100 100 100 100 100 100 100 100 100 100 100
100 100 100 100 100 100 100 100 97 74 35 2 0 0 0 0 87 97 100 100 100 100 100 99 93 78 100 100 100 100 100 100 100 100 100 100 100 100 100 100 100 100 98
100 100 100 100 100 100 100 100 87 19 8 0 74 42 97 100 100 100 100 100 60 92 10 6 21 100 100 100 100 100 100 100 100 100 100 100 100 100 100 100 100 100 75
100 100 100 100 100 100 100 100 100 100 100 100 98 98 84 88 93 100 100 100 62 36 47 4 100 100 100 100 100 100 100 100 100 100 100 100 100 100 100 100 86 73 30
100 100 100 100 100 100 100 100 100 100 100 100 100 100 100 100 99 97 100 100 88 38 17 86 100 100 100 100 100 100 100 100 100 100 100 100 100 100 100 97 73 99 97
90 79 99 100 100 100 100 100 100 100 100 100 98 44 50 86 5 1 0 13 1 8 87 100 100 100 100 100 100 100 100 100 100 100 99 96 100 98 100 37 100 84 75
99 100 100 100 100 100 100 100 100 100 100 98 100 80 100 100 99 87 20 22 93 100 100 100 100 100 100 100 100 100 100 100 90 84 100 67 43 75 99 100 82 55 81
100 29 87 98 100 100 100 99 100 100 99 87 100 100 97 100 100 100 100 100 100 100 100 100 100 100 100 100 100 74 72 98 81 40 43 13 44 100 98 81 66 80 97
100 100 100 95 84 73 96 100 100 100 80 61 70 100 100 100 100 100 100 100 100 100 100 100 100 100 100 100 77 76 96 78 9 14 47 97 72 52 48 71 51 85 90
100 100 100 100 100 86 33 75 100 100 100 100 100 100 100 100 100 100 100 100 100 100 100 100 100 100 100 78 92 100 100 98 68 100 99 76 100 98 31 36 32 69 96
100 100 100 100 100 100 100 98 100 100 99 96 100 100 94 100 100 100 100 100 100 100 100 100 100 100 99 100 100 98 96 100 57 53 100 100 76 5 57 42 71 30 12